TimeCST,TemperatureF,Dew PointF,Humidity,Sea Level PressureIn,VisibilityMPH,Wind Direction,Wind SpeedMPH,Gust SpeedMPH,PrecipitationIn,Events,Conditions,WindDirDegrees,DateUTC
12:15 AM,19.4,8.6,63,29.91,10.0,SSW,10.4,-,N/A,,Overcast,200,2012-12-11 06:15:00
12:35 AM,21.2,8.6,58,29.90,10.0,SSW,12.7,-,N/A,,Overcast,200,2012-12-11 06:35:00
12:55 AM,21.2,8.6,58,29.89,-9999.0,SSW,11.5,-,N/A,,Overcast,210,2012-12-11 06:55:00
1:15 AM,21.2,8.6,58,29.90,10.0,SSW,9.2,-,N/A,,Overcast,200,2012-12-11 07:15:00
1:35 AM,21.2,10.4,63,29.90,10.0,SSW,9.2,-,N/A,,Overcast,210,2012-12-11 07:35:00
1:55 AM,21.2,10.4,63,29.90,10.0,SSW,8.1,-,N/A,,Overcast,210,2012-12-11 07:55:00
2:15 AM,21.2,10.4,63,29.91,10.0,SSW,6.9,-,N/A,,Overcast,210,2012-12-11 08:15:00
2:35 AM,21.2,10.4,63,29.91,10.0,SSW,6.9,-,N/A,,Overcast,200,2012-12-11 08:35:00
2:55 AM,21.2,12.2,68,29.91,10.0,SSW,6.9,-,N/A,,Overcast,200,2012-12-11 08:55:00
3:15 AM,23.0,12.2,63,29.91,10.0,SSW,6.9,-,N/A,,Overcast,210,2012-12-11 09:15:00
3:35 AM,23.0,12.2,63,29.92,10.0,SW,5.8,-,N/A,,Overcast,220,2012-12-11 09:35:00
3:55 AM,23.0,12.2,63,29.91,10.0,SSW,5.8,-,N/A,,Overcast,210,2012-12-11 09:55:00
4:15 AM,23.0,12.2,63,29.92,10.0,SSW,5.8,-,N/A,,Overcast,200,2012-12-11 10:15:00
4:35 AM,21.2,12.2,68,29.92,10.0,SW,6.9,-,N/A,,Mostly Cloudy,230,2012-12-11 10:35:00
4:55 AM,21.2,12.2,68,29.93,10.0,SW,6.9,-,N/A,,Partly Cloudy,230,2012-12-11 10:55:00
5:15 AM,19.4,12.2,74,29.93,10.0,WSW,5.8,-,N/A,,Mostly Cloudy,250,2012-12-11 11:15:00
5:35 AM,23.0,14.0,68,29.93,10.0,West,10.4,-,N/A,,Overcast,270,2012-12-11 11:35:00
5:55 AM,23.0,14.0,68,29.93,10.0,West,9.2,-,N/A,,Scattered Clouds,260,2012-12-11 11:55:00
6:15 AM,21.2,14.0,74,29.94,10.0,West,6.9,-,N/A,,Clear,260,2012-12-11 12:15:00
6:35 AM,21.2,14.0,74,29.95,10.0,West,6.9,-,N/A,,Clear,260,2012-12-11 12:35:00
6:55 AM,21.2,14.0,74,29.96,10.0,WSW,6.9,-,N/A,,Partly Cloudy,240,2012-12-11 12:55:00
7:15 AM,19.4,14.0,80,29.96,10.0,South,6.9,-,N/A,,Partly Cloudy,190,2012-12-11 13:15:00
7:35 AM,17.6,12.2,79,29.97,10.0,SW,8.1,-,N/A,,Clear,220,2012-12-11 13:35:00
7:55 AM,19.4,14.0,80,29.97,10.0,SW,8.1,-,N/A,,Clear,220,2012-12-11 13:55:00
8:15 AM,19.4,14.0,80,29.98,10.0,SSW,8.1,-,N/A,,Clear,200,2012-12-11 14:15:00
8:35 AM,21.2,15.8,80,29.98,10.0,SSW,9.2,-,N/A,,Clear,210,2012-12-11 14:35:00
8:55 AM,24.8,17.6,74,29.99,10.0,SSW,6.9,-,N/A,,Clear,210,2012-12-11 14:55:00
9:15 AM,26.6,17.6,69,29.99,10.0,SW,8.1,-,N/A,,Clear,230,2012-12-11 15:15:00
9:35 AM,30.2,19.4,64,29.98,10.0,WSW,8.1,-,N/A,,Clear,250,2012-12-11 15:35:00
9:55 AM,32.0,19.4,60,29.99,10.0,WSW,11.5,-,N/A,,Clear,240,2012-12-11 15:55:00
10:15 AM,32.0,21.2,64,29.99,10.0,WSW,13.8,-,N/A,,Scattered Clouds,240,2012-12-11 16:15:00
10:35 AM,35.6,21.2,56,29.99,10.0,SW,13.8,-,N/A,,Mostly Cloudy,230,2012-12-11 16:35:00
10:55 AM,35.6,21.2,56,29.99,10.0,WSW,15.0,-,N/A,,Overcast,250,2012-12-11 16:55:00
11:15 AM,37.4,21.2,52,29.99,10.0,West,18.4,-,N/A,,Overcast,260,2012-12-11 17:15:00
11:35 AM,37.4,21.2,52,29.98,10.0,WSW,17.3,24.2,N/A,,Scattered Clouds,250,2012-12-11 17:35:00
11:55 AM,39.2,21.2,49,29.98,10.0,West,17.3,27.6,N/A,,Clear,260,2012-12-11 17:55:00
12:15 PM,39.2,21.2,49,29.97,10.0,West,17.3,23.0,N/A,,Clear,260,2012-12-11 18:15:00
12:35 PM,39.2,21.2,49,29.97,10.0,West,17.3,24.2,N/A,,Clear,260,2012-12-11 18:35:00
12:55 PM,41.0,23.0,49,29.97,10.0,West,16.1,-,N/A,,Partly Cloudy,270,2012-12-11 18:55:00
1:15 PM,41.0,23.0,49,29.96,10.0,WSW,12.7,20.7,N/A,,Clear,250,2012-12-11 19:15:00
1:35 PM,41.0,21.2,45,29.96,10.0,West,18.4,24.2,N/A,,Clear,260,2012-12-11 19:35:00
1:55 PM,41.0,21.2,45,29.96,10.0,WSW,17.3,-,N/A,,Clear,250,2012-12-11 19:55:00
2:15 PM,41.0,19.4,42,29.95,10.0,WSW,16.1,-,N/A,,Clear,250,2012-12-11 20:15:00
2:35 PM,41.0,19.4,42,29.95,10.0,West,16.1,24.2,N/A,,Clear,260,2012-12-11 20:35:00
2:55 PM,42.8,19.4,39,29.95,10.0,WSW,15.0,-,N/A,,Clear,250,2012-12-11 20:55:00
3:15 PM,42.8,19.4,39,29.95,10.0,West,15.0,-,N/A,,Clear,260,2012-12-11 21:15:00
3:35 PM,41.0,19.4,42,29.95,10.0,WSW,12.7,19.6,N/A,,Mostly Cloudy,250,2012-12-11 21:35:00
3:55 PM,41.0,19.4,42,29.95,10.0,SW,8.1,-,N/A,,Mostly Cloudy,220,2012-12-11 21:55:00
4:15 PM,41.0,19.4,42,29.95,10.0,SW,8.1,15.0,N/A,,Overcast,230,2012-12-11 22:15:00
4:35 PM,39.2,19.4,45,29.95,10.0,SW,9.2,16.1,N/A,,Mostly Cloudy,230,2012-12-11 22:35:00
4:55 PM,35.6,19.4,52,29.96,10.0,WSW,8.1,-,N/A,,Partly Cloudy,240,2012-12-11 22:55:00
5:15 PM,32.0,17.6,55,29.96,10.0,WSW,5.8,-,N/A,,Clear,240,2012-12-11 23:15:00
5:35 PM,30.2,17.6,60,29.97,10.0,SW,3.5,-,N/A,,Clear,230,2012-12-11 23:35:00
5:55 PM,30.2,17.6,60,29.97,10.0,South,3.5,-,N/A,,Clear,180,2012-12-11 23:55:00
6:15 PM,28.4,17.6,64,29.97,10.0,SSW,3.5,-,N/A,,Clear,210,2012-12-12 00:15:00
6:35 PM,26.6,17.6,69,29.98,10.0,SW,3.5,-,N/A,,Clear,220,2012-12-12 00:35:00
6:55 PM,24.8,17.6,74,29.98,10.0,SW,3.5,-,N/A,,Clear,230,2012-12-12 00:55:00
7:15 PM,24.8,17.6,74,29.98,10.0,Calm,Calm,-,N/A,,Clear,0,2012-12-12 01:15:00
7:35 PM,24.8,17.6,74,29.99,10.0,SSW,3.5,-,N/A,,Clear,210,2012-12-12 01:35:00
7:55 PM,24.8,15.8,69,29.99,10.0,SW,3.5,-,N/A,,Clear,220,2012-12-12 01:55:00
8:15 PM,23.0,15.8,74,30.00,10.0,SW,3.5,-,N/A,,Clear,220,2012-12-12 02:15:00
8:35 PM,23.0,15.8,74,30.00,10.0,SSW,4.6,-,N/A,,Clear,210,2012-12-12 02:35:00
8:55 PM,23.0,15.8,74,30.00,10.0,SSW,4.6,-,N/A,,Clear,200,2012-12-12 02:55:00
9:15 PM,26.6,17.6,69,30.00,10.0,SSW,5.8,-,N/A,,Clear,210,2012-12-12 03:15:00
9:35 PM,26.6,17.6,69,30.01,10.0,SSW,6.9,-,N/A,,Clear,200,2012-12-12 03:35:00
9:55 PM,24.8,17.6,74,30.01,10.0,SSW,5.8,-,N/A,,Clear,200,2012-12-12 03:55:00
10:15 PM,24.8,17.6,74,30.01,10.0,SSW,6.9,-,N/A,,Clear,200,2012-12-12 04:15:00
10:35 PM,24.8,17.6,74,30.01,10.0,SSW,5.8,-,N/A,,Clear,200,2012-12-12 04:35:00
10:55 PM,24.8,17.6,74,30.01,10.0,South,6.9,-,N/A,,Clear,190,2012-12-12 04:55:00
11:15 PM,23.0,17.6,80,30.01,10.0,SSW,5.8,-,N/A,,Clear,200,2012-12-12 05:15:00
11:35 PM,24.8,17.6,74,30.02,10.0,SSW,5.8,-,N/A,,Clear,200,2012-12-12 05:35:00
11:55 PM,26.6,19.4,74,30.02,10.0,South,9.2,-,N/A,,Clear,190,2012-12-12 05:55:00